GW6017 Weather Reports


time (UTC)temp
F
wind
direction
speed
knots
gust
knots
rain 1hr
in
rain 24hr
in
rain mn
in
humidity
%
barometer
mb
20260509043518 73 45 10.4 16.5 0.00 0.00 0.00 29 1019.1
20260509043008 73 68 11.3 15.6 0.00 0.00 0.00 29 1019.2
20260509042518 73 45 11.3 16.5 0.00 0.00 0.00 29 1019.2
20260509042018 73 45 10.4 16.5 0.00 0.00 0.00 29 1019.5
20260509041519 73 45 12.2 17.4 0.00 0.00 0.00 29 1019.5
20260509041039 73 45 12.2 18.2 0.00 0.00 0.00 29 1019.7
20260509040518 73 45 13.0 18.2 0.00 0.00 0.00 29 1019.8
20260509040008 73 45 12.2 19.1 0.00 0.00 0.00 29 1019.8
20260509035523 72 45 13.9 18.2 0.00 0.00 0.00 30 1019.9
20260509035019 72 45 13.0 18.2 0.00 0.00 0.00 29 1020.1
20260509034518 72 45 14.8 19.1 0.00 0.00 0.00 30 1020.4
20260509034018 71 45 13.0 19.1 0.00 0.00 0.00 31 1020.5
20260509033518 72 45 13.9 19.1 0.00 0.00 0.00 30 1020.5
20260509033009 72 45 13.9 20.0 0.00 0.00 0.00 31 1020.6
20260509032518 71 45 14.8 20.0 0.00 0.00 0.00 31 1020.7
20260509032038 72 45 14.8 20.0 0.00 0.00 0.00 31 1020.7
20260509031539 71 45 13.9 20.9 0.00 0.00 0.00 32 1020.7
20260509031018 71 45 13.0 19.1 0.00 0.00 0.00 31 1020.9
20260509030518 70 45 16.5 22.6 0.00 0.00 0.00 31 1021.0
20260509030007 70 45 15.6 21.7 0.00 0.00 0.00 32 1021.0
20260509025518 70 45 15.6 21.7 0.00 0.00 0.00 33 1021.1
20260509025018 69 45 14.8 20.0 0.00 0.00 0.00 33 1021.2
20260509024518 69 45 15.6 20.9 0.00 0.00 0.00 33 1021.3
20260509024018 69 45 15.6 22.6 0.00 0.00 0.00 33 1021.4
20260509023518 69 45 16.5 24.3 0.00 0.00 0.00 33 1021.3
20260509023010 69 45 16.5 20.9 0.00 0.00 0.00 33 1021.3
20260509022517 69 45 16.5 21.7 0.00 0.00 0.00 34 1021.4
20260509022018 68 68 18.2 22.6 0.00 0.00 0.00 35 1021.3
20260509021518 67 45 18.2 24.3 0.00 0.00 0.00 35 1021.4
20260509021038 67 45 17.4 22.6 0.00 0.00 0.00 36 1021.5
20260509020520 66 45 18.2 22.6 0.00 0.00 0.00 36 1021.5
20260509020013 66 45 17.4 24.3 0.00 0.00 0.00 37 1021.7
20260509015518 66 45 19.1 25.2 0.00 0.00 0.00 37 1021.5
20260509015019 66 45 17.4 23.5 0.00 0.00 0.00 37 1021.7
20260509014539 65 45 18.2 24.3 0.00 0.00 0.00 38 1021.6
20260509014018 65 45 17.4 22.6 0.00 0.00 0.00 38 1021.6
20260509013518 64 45 20.0 25.2 0.00 0.00 0.00 39 1021.6
20260509013029 64 68 20.0 25.2 0.00 0.00 0.00 39 1021.6
20260509012517 64 68 18.2 23.5 0.00 0.00 0.00 40 1021.5
20260509012018 64 45 18.2 23.5 0.00 0.00 0.00 40 1021.6
20260509011559 63 68 18.2 26.9 0.00 0.00 0.00 40 1021.6
20260509011018 63 45 19.1 26.9 0.00 0.00 0.00 42 1021.5
20260509010518 62 68 19.1 23.5 0.00 0.00 0.00 42 1021.6
20260509010008 62 68 18.2 23.5 0.00 0.00 0.00 43 1021.6
20260509005517 62 68 17.4 24.3 0.00 0.00 0.00 43 1021.7
20260509005017 61 68 18.2 23.5 0.00 0.00 0.00 43 1021.7
20260509004518 61 68 18.2 24.3 0.00 0.00 0.00 44 1021.6
20260509004038 61 68 18.2 24.3 0.00 0.00 0.00 45 1021.6
20260509003517 60 68 17.4 22.6 0.00 0.00 0.00 45 1021.6
20260509003012 60 68 18.2 23.5 0.00 0.00 0.00 46 1021.5
20260509002517 59 68 18.2 22.6 0.00 0.00 0.00 47 1021.6
20260509002017 59 68 19.1 25.2 0.00 0.00 0.00 48 1021.6
20260509001517 58 68 18.2 23.5 0.00 0.00 0.00 48 1021.4
20260509001017 58 68 17.4 22.6 0.00 0.00 0.00 49 1021.4
20260509000517 58 68 18.2 24.3 0.00 0.00 0.00 49 1021.4
20260509000009 57 68 16.5 22.6 0.00 0.00 0.00 50 1021.4
20260508235517 57 68 16.5 20.9 0.00 0.00 0.00 51 1021.5
20260508235017 57 68 15.6 20.9 0.00 0.00 0.00 51 1021.4
20260508234518 56 68 15.6 20.9 0.00 0.00 0.00 52 1021.5
20260508234017 56 68 14.8 19.1 0.00 0.00 0.00 52 1021.4
20260508233517 56 68 15.6 18.2 0.00 0.00 0.00 52 1021.3
20260508233027 55 68 13.9 18.2 0.00 0.00 0.00 53 1021.3
20260508232518 55 68 13.9 18.2 0.00 0.00 0.00 53 1021.3
20260508232017 55 68 13.0 16.5 0.00 0.00 0.00 54 1021.3
20260508231517 54 68 13.0 16.5 0.00 0.00 0.00 54 1021.2
20260508231017 54 68 13.0 16.5 0.00 0.00 0.00 55 1021.2
20260508230538 54 68 12.2 15.6 0.00 0.00 0.00 55 1021.2
20260508230007 54 68 11.3 13.9 0.00 0.00 0.00 55 1021.1
20260508225517 53 68 11.3 14.8 0.00 0.00 0.00 56 1021.1
20260508225017 54 68 11.3 13.9 0.00 0.00 0.00 56 1021.0
20260508224517 53 68 11.3 13.9 0.00 0.00 0.00 56 1021.0
20260508224017 54 68 12.2 16.5 0.00 0.00 0.00 55 1020.9
20260508223517 54 68 13.0 16.5 0.00 0.00 0.00 55 1020.9
20260508223007 54 68 13.0 16.5 0.00 0.00 0.00 55 1020.9
20260508222517 54 68 13.9 17.4 0.00 0.00 0.00 55 1020.9
20260508222017 54 68 13.9 17.4 0.00 0.00 0.00 55 1020.8
20260508221518 54 68 12.2 15.6 0.00 0.00 0.00 56 1020.7
20260508221018 54 68 12.2 15.6 0.00 0.00 0.00 56 1020.7
20260508220540 54 68 11.3 13.9 0.00 0.00 0.00 56 1020.6
20260508220008 54 68 11.3 15.6 0.00 0.00 0.00 55 1020.6
20260508215601 54 68 12.2 14.8 0.00 0.00 0.00 55 1020.6
20260508215017 54 68 11.3 17.4 0.00 0.00 0.00 54 1020.6
20260508214519 55 68 11.3 14.8 0.00 0.00 0.00 54 1020.8
20260508214019 55 68 12.2 16.5 0.00 0.00 0.00 54 1020.8
20260508213519 55 68 11.3 15.6 0.00 0.00 0.00 54 1020.8
20260508213008 55 68 11.3 14.8 0.00 0.00 0.00 54 1020.8
20260508212622 55 68 10.4 16.5 0.00 0.00 0.00 54 1020.8
20260508212019 55 68 11.3 15.6 0.00 0.00 0.00 54 1020.7
20260508211519 55 68 12.2 15.6 0.00 0.00 0.00 53 1020.6
20260508211019 55 68 11.3 16.5 0.00 0.00 0.00 54 1020.5
20260508210519 55 68 12.2 15.6 0.00 0.00 0.00 54 1020.5
20260508210007 55 68 11.3 15.6 0.00 0.00 0.00 54 1020.5
20260508205539 55 68 12.2 14.8 0.00 0.00 0.00 54 1020.5
20260508205019 56 68 12.2 15.6 0.00 0.00 0.00 53 1020.5
20260508204519 56 68 12.2 14.8 0.00 0.00 0.00 54 1020.6
20260508204019 55 68 12.2 16.5 0.00 0.00 0.00 54 1020.5
20260508203519 56 68 12.2 15.6 0.00 0.00 0.00 54 1020.5
20260508203006 56 68 12.2 15.6 0.00 0.00 0.00 54 1020.6
20260508202519 55 68 12.2 15.6 0.00 0.00 0.00 54 1020.5
20260508202100 55 68 11.3 14.8 0.00 0.00 0.00 55 1020.5
20260508201519 55 68 10.4 13.0 0.00 0.00 0.00 55 1020.6
20260508201019 55 68 9.6 13.0 0.00 0.00 0.00 55 1020.6
20260508200519 56 68 8.7 12.2 0.00 0.00 0.00 54 1020.6
20260508200007 56 68 7.8 13.0 0.00 0.00 0.00 54 1020.7
20260508195539 56 90 7.8 11.3 0.00 0.00 0.00 54 1020.7
20260508195100 56 90 7.0 10.4 0.00 0.00 0.00 54 1020.7
20260508194519 56 90 6.1 10.4 0.00 0.00 0.00 55 1020.7
20260508194019 56 90 7.0 9.6 0.00 0.00 0.00 55 1020.6
20260508193519 56 90 7.0 10.4 0.00 0.00 0.00 55 1020.7
20260508193008 56 68 7.8 10.4 0.00 0.00 0.00 55 1020.7
20260508192539 56 68 7.8 10.4 0.00 0.00 0.00 55 1020.7
20260508192039 56 90 7.0 9.6 0.00 0.00 0.00 55 1020.6
20260508191518 56 90 6.1 8.7 0.00 0.00 0.00 55 1020.7
20260508191039 56 90 6.1 9.6 0.00 0.00 0.00 55 1020.7
20260508190519 56 90 6.1 8.7 0.00 0.00 0.00 55 1020.7
20260508190006 56 90 6.1 7.8 0.00 0.00 0.00 55 1020.8
20260508185540 56 90 6.1 8.7 0.00 0.00 0.00 55 1020.7
20260508185039 56 90 6.1 8.7 0.00 0.00 0.00 55 1020.7
20260508184519 56 90 7.0 8.7 0.00 0.00 0.00 56 1020.7
20260508184019 56 90 6.1 8.7 0.00 0.00 0.00 57 1020.6
20260508183519 55 90 6.1 8.7 0.00 0.00 0.00 57 1020.6
20260508183006 55 68 7.0 8.7 0.00 0.00 0.00 58 1020.7
20260508182600 55 68 7.0 9.6 0.00 0.00 0.00 58 1020.7
20260508182019 54 68 6.1 8.7 0.00 0.00 0.00 59 1020.5
20260508181519 54 68 5.2 7.8 0.00 0.00 0.00 58 1020.6
20260508181019 55 90 5.2 7.0 0.00 0.00 0.00 58 1020.5
20260508180519 55 90 5.2 7.0 0.00 0.00 0.00 58 1020.4
20260508180007 55 68 5.2 7.0 0.00 0.00 0.00 58 1020.5
20260508175519 56 90 5.2 7.0 0.00 0.00 0.00 57 1020.5
20260508175040 56 90 5.2 7.0 0.00 0.00 0.00 57 1020.6
20260508174518 56 90 5.2 7.8 0.00 0.00 0.00 56 1020.7
20260508174019 56 68 6.1 8.7 0.00 0.00 0.00 56 1020.7
20260508173518 57 68 7.0 9.6 0.00 0.00 0.00 55 1020.6
20260508173006 57 68 7.0 8.7 0.00 0.00 0.00 55 1020.7
20260508172519 57 68 7.8 9.6 0.00 0.00 0.00 55 1020.7
20260508172039 57 68 7.8 10.4 0.00 0.00 0.00 55 1020.5
20260508171518 57 68 8.7 11.3 0.00 0.00 0.00 55 1020.6
20260508171018 57 68 8.7 11.3 0.00 0.00 0.00 55 1020.6
20260508170518 57 68 9.6 11.3 0.00 0.00 0.00 55 1020.6
20260508170008 57 68 9.6 12.2 0.00 0.00 0.00 55 1020.5
20260508165518 57 68 8.7 11.3 0.00 0.00 0.00 55 1020.6
20260508165100 57 68 8.7 11.3 0.00 0.00 0.00 55 1020.6
20260508164519 58 68 8.7 11.3 0.00 0.00 0.00 54 1020.7
20260508164018 58 68 8.7 12.2 0.00 0.00 0.00 54 1020.7
20260508163518 58 68 8.7 11.3 0.00 0.00 0.00 54 1020.7
20260508163010 58 68 8.7 11.3 0.00 0.00 0.00 54 1020.7
20260508162518 58 68 8.7 12.2 0.00 0.00 0.00 54 1020.7
20260508162018 58 68 8.7 12.2 0.00 0.00 0.00 54 1020.6
20260508161518 58 68 7.8 10.4 0.00 0.00 0.00 54 1020.7
20260508161018 58 68 7.0 9.6 0.00 0.00 0.00 54 1020.7
20260508160518 58 68 7.8 10.4 0.00 0.00 0.00 54 1020.8
20260508160009 58 68 7.8 10.4 0.00 0.00 0.00 54 1020.8
20260508155518 58 68 7.8 9.6 0.00 0.00 0.00 54 1020.6
20260508155018 58 68 7.8 9.6 0.00 0.00 0.00 54 1020.6
20260508154517 58 68 7.8 9.6 0.00 0.00 0.00 53 1020.6
20260508154017 59 68 7.0 10.4 0.00 0.00 0.00 52 1020.5
20260508153517 59 68 6.1 9.6 0.00 0.00 0.00 52 1020.6
20260508153007 60 90 6.1 10.4 0.00 0.00 0.00 51 1020.6
20260508152518 60 90 6.1 9.6 0.00 0.00 0.00 51 1020.6
20260508152039 60 90 7.0 8.7 0.00 0.00 0.00 51 1020.5
20260508151518 60 90 7.0 9.6 0.00 0.00 0.00 51 1020.6
20260508151017 60 90 7.0 9.6 0.00 0.00 0.00 50 1020.6
20260508150517 60 90 7.0 8.7 0.00 0.00 0.00 50 1020.6
20260508150006 60 90 7.0 10.4 0.00 0.00 0.00 50 1020.7
20260508145518 60 90 7.0 10.4 0.00 0.00 0.00 50 1020.7
20260508145017 60 90 6.1 10.4 0.00 0.00 0.00 50 1020.7
20260508144538 59 90 5.2 8.7 0.00 0.00 0.00 50 1020.7
20260508144017 59 90 5.2 7.8 0.00 0.00 0.00 50 1020.8
20260508143518 60 90 6.1 7.8 0.00 0.00 0.00 50 1020.9
20260508143007 60 90 4.3 7.8 0.00 0.00 0.00 49 1020.9
20260508142518 60 90 6.1 8.7 0.00 0.00 0.00 49 1020.9
20260508142018 61 90 7.0 9.6 0.00 0.00 0.00 48 1020.9
20260508141517 61 90 6.1 9.6 0.00 0.00 0.00 48 1020.9
20260508141017 61 90 7.8 10.4 0.00 0.00 0.00 47 1020.8
20260508140518 61 90 7.0 11.3 0.00 0.00 0.00 47 1020.7
20260508140006 60 113 6.1 10.4 0.00 0.00 0.00 48 1020.8
20260508135517 60 90 5.2 7.8 0.00 0.00 0.00 48 1020.6
20260508135038 60 90 5.2 7.0 0.00 0.00 0.00 49 1020.5
20260508134517 60 90 5.2 7.8 0.00 0.00 0.00 48 1020.6
20260508134038 60 90 6.1 10.4 0.00 0.00 0.00 49 1020.6
20260508133517 60 90 5.2 7.0 0.00 0.00 0.00 49 1020.5
20260508133049 60 90 5.2 7.8 0.00 0.00 0.00 48 1020.5
20260508132518 61 90 5.2 7.8 0.00 0.00 0.00 48 1020.5
20260508132038 60 68 6.1 7.8 0.00 0.00 0.00 48 1020.4
20260508131517 60 68 7.0 8.7 0.00 0.00 0.00 49 1020.4
20260508131038 59 68 7.0 7.8 0.00 0.00 0.00 49 1020.3
20260508130517 59 68 6.1 7.0 0.00 0.00 0.00 49 1020.3
20260508130007 59 68 6.1 7.8 0.00 0.00 0.00 49 1020.3
20260508125517 59 68 6.1 7.8 0.00 0.00 0.00 49 1020.2
20260508125017 59 68 6.1 7.8 0.00 0.00 0.00 49 1020.1
20260508124517 59 68 6.1 7.8 0.00 0.00 0.00 49 1020.1
20260508124018 59 68 6.1 7.8 0.00 0.00 0.00 49 1020.1
20260508123519 59 68 6.1 7.0 0.00 0.00 0.00 48 1020.0
20260508123008 60 68 5.2 7.0 0.00 0.00 0.00 47 1020.1
20260508122519 60 68 6.1 7.0 0.00 0.00 0.00 47 1020.0
20260508122039 61 68 5.2 7.0 0.00 0.00 0.00 46 1020.0
20260508121519 61 68 5.2 7.0 0.00 0.00 0.00 46 1020.1
20260508121019 61 68 6.1 7.8 0.00 0.00 0.00 45 1020.1
20260508120538 61 68 5.2 7.0 0.00 0.00 0.00 45 1019.9
20260508120008 61 68 5.2 7.0 0.00 0.00 0.00 44 1019.9
20260508115519 62 68 5.2 7.8 0.00 0.00 0.00 44 1019.8
20260508115019 63 90 4.3 7.8 0.00 0.00 0.00 43 1019.8
20260508114539 63 90 5.2 7.0 0.00 0.00 0.00 43 1019.6
20260508114019 63 68 5.2 7.0 0.00 0.00 0.00 43 1019.7
20260508113519 63 90 5.2 7.0 0.00 0.00 0.00 43 1019.6
20260508113008 63 90 4.3 7.0 0.00 0.00 0.00 43 1019.6
20260508112519 63 90 5.2 7.0 0.00 0.00 0.00 43 1019.5
20260508112039 63 90 4.3 7.0 0.00 0.00 0.00 43 1019.4
20260508111539 63 90 4.3 6.1 0.00 0.00 0.00 42 1019.4
20260508111019 64 90 4.3 6.1 0.00 0.00 0.00 41 1019.5
20260508110519 64 90 4.3 6.1 0.00 0.00 0.00 41 1019.4
20260508110008 65 90 4.3 6.1 0.00 0.00 0.00 40 1019.4
20260508105519 66 90 4.3 7.0 0.00 0.00 0.00 40 1019.3
20260508105020 66 90 4.3 6.1 0.00 0.00 0.00 39 1019.4
20260508104519 66 90 4.3 7.8 0.00 0.00 0.00 39 1019.4
20260508104019 66 90 4.3 7.8 0.00 0.00 0.00 39 1019.4
20260508103519 66 90 4.3 7.0 0.00 0.00 0.00 39 1019.4
20260508103008 66 90 5.2 7.0 0.00 0.00 0.00 39 1019.3
20260508102100 66 90 4.3 7.0 0.00 0.00 0.00 38 1019.3
20260508101539 67 90 4.3 6.1 0.00 0.00 0.00 38 1019.3
20260508101019 67 90 4.3 7.0 0.00 0.00 0.00 37 1019.3
20260508100519 67 90 4.3 7.0 0.00 0.00 0.00 37 1019.3
20260508100028 68 90 4.3 7.0 0.00 0.00 0.00 36 1019.2
20260508095519 68 90 4.3 7.0 0.00 0.00 0.00 36 1019.1
20260508095039 69 90 4.3 7.8 0.00 0.00 0.00 35 1018.9
20260508094519 69 90 5.2 7.0 0.00 0.00 0.00 35 1019.1
20260508094019 70 90 6.1 8.7 0.00 0.00 0.00 34 1019.0
20260508093519 70 90 7.0 10.4 0.00 0.00 0.00 33 1019.0
20260508093011 71 90 7.8 11.3 0.00 0.00 0.00 32 1019.1
20260508092519 71 90 7.8 11.3 0.00 0.00 0.00 32 1019.1
20260508092039 71 90 7.0 11.3 0.00 0.00 0.00 32 1019.0
20260508091520 72 90 7.0 11.3 0.00 0.00 0.00 32 1019.0
20260508091039 72 90 7.0 11.3 0.00 0.00 0.00 31 1019.0
20260508090519 72 90 6.1 11.3 0.00 0.00 0.00 31 1018.9
20260508090013 73 90 7.8 13.0 0.00 0.00 0.00 31 1019.0
20260508085518 73 90 9.6 13.9 0.00 0.00 0.00 31 1018.9
20260508085018 73 90 7.8 11.3 0.00 0.00 0.00 31 1018.9
20260508084518 73 90 8.7 13.9 0.00 0.00 0.00 31 1018.9
20260508084039 73 90 9.6 13.9 0.00 0.00 0.00 31 1018.9
20260508083519 74 90 9.6 16.5 0.00 0.00 0.00 31 1018.9
20260508083006 74 90 9.6 14.8 0.00 0.00 0.00 30 1018.9
20260508082519 74 90 8.7 12.2 0.00 0.00 0.00 30 1018.9
20260508082019 74 90 8.7 13.9 0.00 0.00 0.00 30 1018.9
20260508081519 74 90 9.6 13.0 0.00 0.00 0.00 31 1018.8
20260508081018 74 90 10.4 15.6 0.00 0.00 0.00 30 1018.7
20260508080519 74 90 10.4 18.2 0.00 0.00 0.00 30 1018.7
20260508080048 75 90 8.7 13.9 0.00 0.00 0.00 30 1018.8
20260508075539 75 90 10.4 14.8 0.00 0.00 0.00 30 1018.8
20260508075039 75 90 9.6 13.9 0.00 0.00 0.00 30 1018.8
20260508074518 75 90 9.6 16.5 0.00 0.00 0.00 30 1018.8
20260508074019 75 68 8.7 14.8 0.00 0.00 0.00 30 1018.8
20260508073518 75 90 9.6 17.4 0.00 0.00 0.00 30 1018.8
20260508073006 75 90 7.8 12.2 0.00 0.00 0.00 30 1018.8
20260508072519 76 90 9.6 16.5 0.00 0.00 0.00 29 1019.0
20260508072018 76 90 7.8 13.9 0.00 0.00 0.00 30 1019.0
20260508071539 75 90 8.7 13.0 0.00 0.00 0.00 30 1019.0
20260508071018 75 68 11.3 20.9 0.00 0.00 0.00 30 1018.8
20260508070518 75 68 10.4 14.8 0.00 0.00 0.00 30 1019.0
20260508070006 75 90 7.8 12.2 0.00 0.00 0.00 31 1019.0
20260508065539 75 113 8.7 16.5 0.00 0.00 0.00 30 1019.0
20260508065018 76 90 7.0 11.3 0.00 0.00 0.00 30 1019.1
20260508064519 75 90 9.6 15.6 0.00 0.00 0.00 30 1019.0
20260508064019 75 90 9.6 13.0 0.00 0.00 0.00 30 1019.0
20260508063518 76 68 10.4 17.4 0.00 0.00 0.00 30 1019.1
20260508063011 75 90 10.4 15.6 0.00 0.00 0.00 30 1019.0
20260508062518 75 68 7.8 13.9 0.00 0.00 0.00 30 1019.0
20260508062041 75 90 9.6 13.9 0.00 0.00 0.00 30 1019.0
20260508061518 75 68 9.6 13.0 0.00 0.00 0.00 29 1019.0
20260508061039 74 90 10.4 15.6 0.00 0.00 0.00 32 1019.0
20260508060518 74 68 10.4 15.6 0.00 0.00 0.00 31 1019.0
20260508060006 74 90 7.8 15.6 0.00 0.00 0.00 31 1019.1
20260508055539 74 68 12.2 19.1 0.00 0.00 0.00 31 1019.2
20260508055018 74 68 13.0 16.5 0.00 0.00 0.00 30 1019.1
20260508054518 74 68 9.6 14.8 0.00 0.00 0.00 31 1019.2
20260508054100 74 68 11.3 18.2 0.00 0.00 0.00 32 1019.3
20260508053518 74 90 9.6 15.6 0.00 0.00 0.00 32 1019.3
20260508053029 74 68 10.4 15.6 0.00 0.00 0.00 32 1019.4
20260508052518 73 90 8.7 13.0 0.00 0.00 0.00 33 1019.5
20260508052039 74 68 12.2 18.2 0.00 0.00 0.00 32 1019.5
20260508051518 74 90 9.6 17.4 0.00 0.00 0.00 33 1019.5
20260508051039 74 90 8.7 13.9 0.00 0.00 0.00 34 1019.5
20260508050518 73 68 9.6 16.5 0.00 0.00 0.00 34 1019.7
20260508050032 73 68 11.3 15.6 0.00 0.00 0.00 33 1019.7
20260508045518 73 68 10.4 19.1 0.00 0.00 0.00 34 1019.6
20260508045020 73 68 13.0 18.2 0.00 0.00 0.00 35 1019.8
20260508044518 73 68 13.0 20.0 0.00 0.00 0.00 35 1019.9
20260508044018 73 68 13.0 18.2 0.00 0.00 0.00 35 1020.0